User: anonymous   Login
Location: Cherry Springs State Park
(41.6616°N, 77.8240°W)
Time: 06:48:02
(UTC-05:00)
Language:

Cosmos 1437 - Orbit

View from above orbital plane
View from above orbital plane
View from above satellite
View from above satellite

Ground track
Ground track

The orbit data is extracted from the following two-line orbital elements,

1 13770U 83003A   17057.72206082  .00006629  00000-0  11718-3 0  9993
2 13770  81.1568 284.0258 0006029 295.3614  64.7008 15.50119381869401
Epoch (UTC): 26 February 2017 17:19:46
Eccentricity: 0.0006029
inclination: 81.1568°
perigee height: 412 km
apogee height: 420 km
right ascension of ascending node: 284.0258°
argument of perigee: 295.3614°
revolutions per day: 15.50119381
mean anomaly at epoch: 64.7008°
orbit number at epoch: 86940

The dashed part of the orbit path shows where the satellite is in the earth's shadow,  

DLR